Terminal Aerodrome Forecast
Issued by NWS Huntsville, AL

Home | Current Version | Previous Version | Text Only | Print | Product List | Glossary On
Versions: 1 2 3 4 5 6 7 8 9 10 11 12 13 14 15 16 17 18 19 20 21 22 23 24 25 26 27 28 29 30 31 32 33 34 35 36 37 38 39 40 41 42
000
FTUS44 KHUN 260813 AAA
TAFMSL
TAF AMD
KMSL 260813Z 2608/2706 00000KT 5SM BR SCT250
      TEMPO 2608/2612 3/4SM BR
     FM261600 25007KT P6SM FEW040
     FM262300 VRB03KT P6SM SCT250=

USA.gov is the U.S. government's official web portal to all federal, state and local government web resources and services.